QPF
0.00 0.00 0.00 0.00 0.00 0.00 0.01 0.00 0.00 0.00 0.00 0.00 0.00 0.00 0.00 0.00 0.00 0.00 0.00 0.00 0.00 0.00 0.00 0.00 0.00 0.00 0.00 0.00 0.00 0.00 0.00 0.00 0.00 0.00 0.00 0.00 0.00 0.00 0.00 0.00 0.00 0.00 0.00
0.00 0.00 0.00 0.00 0.00 0.00 0.01 0.01 0.00 0.00 0.00 0.00 0.00 0.00 0.00 0.00 0.00 0.00 0.00 0.00 0.00 0.00 0.00 0.00 0.00 0.00 0.00 0.00 0.00 0.00 0.00 0.00 0.00 0.00 0.00 0.00 0.00 0.00 0.00 0.00 0.00 0.00 0.00
0.00 0.00 0.00 0.00 0.00 0.00 0.00 0.01 0.00 0.00 0.00 0.00 0.00 0.00 0.00 0.00 0.00 0.00 0.00 0.00 0.00 0.00 0.00 0.00 0.00 0.00 0.00 0.00 0.00 0.00 0.00 0.00 0.00 0.00 0.00 0.00 0.00 0.00 0.00 0.00 0.00 0.00 0.00
0.00 0.00 0.00 0.00 0.00 0.00 0.00 0.01 0.05 0.03 0.01 0.01 0.01 0.00 0.00 0.00 0.00 0.00 0.00 0.00 0.00 0.00 0.00 0.00 0.00 0.00 0.00 0.00 0.00 0.00 0.00 0.00 0.00 0.00 0.00 0.00 0.00 0.00 0.00 0.00 0.00 0.00 0.00
0.00 0.00 0.00 0.00 0.00 0.01 0.00 0.02 0.05 0.05 0.08 0.04 0.02 0.01 0.00 0.00 0.00 0.00 0.00 0.00 0.00 0.00 0.00 0.00 0.00 0.00 0.00 0.00 0.00 0.00 0.00 0.00 0.00 0.00 0.00 0.00 0.00 0.00 0.00 0.00 0.00 0.00 0.00
0.00 0.00 0.00 0.00 0.00 0.01 0.01 0.03 0.05 0.04 0.10 0.09 0.02 0.01 0.00 0.00 0.00 0.00 0.00 0.00 0.00 0.00 0.00 0.00 0.00 0.00 0.00 0.00 0.00 0.00 0.00 0.00 0.00 0.00 0.00 0.00 0.00 0.00 0.00 0.00 0.00 0.00 0.00
0.00 0.00 0.00 0.00 0.00 0.01 0.05 0.10 0.06 0.07 0.06 0.02 0.02 0.00 0.00 0.00 0.00 0.00 0.00 0.00 0.00 0.00 0.00 0.00 0.00 0.00 0.00 0.00 0.00 0.00 0.00 0.00 0.00 0.00 0.00 0.00 0.00 0.00 0.00 0.00 0.00 0.00 0.00
0.00 0.00 0.00 0.00 0.00 0.01 0.07 0.18 0.14 0.09 0.05 0.01 0.00 0.00 0.00 0.00 0.00 0.00 0.00 0.00 0.00 0.00 0.00 0.00 0.00 0.00 0.00 0.00 0.00 0.00 0.00 0.00 0.00 0.00 0.00 0.00 0.00 0.00 0.00 0.00 0.00 0.00 0.00
0.00 0.00 0.00 0.00 0.00 0.03 0.07 0.13 0.09 0.03 0.01 0.00 0.00 0.00 0.00 0.00 0.00 0.00 0.00 0.00 0.00 0.00 0.00 0.00 0.00 0.00 0.00 0.00 0.00 0.00 0.00 0.00 0.00 0.00 0.00 0.00 0.00 0.00 0.00 0.00 0.00 0.00 0.00
0.00 0.00 0.00 0.00 0.00 0.01 0.02 0.04 0.01 0.01 0.00 0.00 0.00 0.00 0.00 0.00 0.00 0.00 0.00 0.00 0.00 0.00 0.00 0.00 0.00 0.00 0.00 0.00 0.00 0.00 0.00 0.00 0.00 0.00 0.00 0.00 0.00 0.00 0.00 0.00 0.00 0.00 0.00
0.00 0.00 0.00 0.00 0.00 0.00 0.00 0.00 0.00 0.00 0.00 0.00 0.00 0.00 0.00 0.00 0.00 0.00 0.00 0.00 0.00 0.00 0.00 0.00 0.00 0.00 0.00 0.00 0.00 0.00 0.00 0.00 0.00 0.00 0.00 0.00 0.00 0.00 0.00 0.00 0.00 0.00 0.00
0.00 0.00 0.00 0.00 0.00 0.00 0.00 0.00 0.00 0.00 0.00 0.00 0.00 0.00 0.00 0.01 0.02 0.01 0.00 0.00 0.00 0.00 0.00 0.00 0.00 0.00 0.00 0.00 0.00 0.00 0.00 0.00 0.00 0.00 0.00 0.00 0.00 0.00 0.00 0.00 0.00 0.00 0.00
0.00 0.00 0.00 0.00 0.00 0.00 0.01 0.00 0.00 0.00 0.00 0.00 0.00 0.01 0.03 0.03 0.02 0.01 0.00 0.00 0.00 0.00 0.00 0.00 0.00 0.00 0.00 0.00 0.00 0.00 0.00 0.00 0.00 0.00 0.00 0.00 0.00 0.00 0.00 0.00 0.00 0.00 0.00
0.00 0.00 0.00 0.00 0.00 0.02 0.02 0.01 0.00 0.00 0.01 0.02 0.03 0.04 0.03 0.03 0.02 0.00 0.00 0.00 0.00 0.00 0.00 0.00 0.00 0.00 0.00 0.00 0.00 0.00 0.00 0.00 0.00 0.00 0.00 0.00 0.00 0.00 0.00 0.00 0.00 0.00 0.00
0.00 0.00 0.00 0.01 0.01 0.01 0.02 0.01 0.02 0.03 0.04 0.05 0.05 0.04 0.02 0.01 0.00 0.00 0.00 0.00 0.00 0.00 0.00 0.00 0.00 0.00 0.00 0.00 0.00 0.00 0.00 0.00 0.00 0.00 0.00 0.00 0.00 0.00 0.00 0.00 0.00 0.00 0.00
0.00 0.00 0.01 0.01 0.00 0.00 0.00 0.01 0.03 0.05 0.06 0.04 0.02 0.01 0.00 0.00 0.00 0.00 0.00 0.00 0.00 0.00 0.00 0.00 0.00 0.00 0.00 0.00 0.00 0.00 0.00 0.00 0.00 0.00 0.00 0.00 0.00 0.00 0.00 0.00 0.00 0.00 0.00
0.00 0.00 0.00 0.00 0.00 0.00 0.01 0.02 0.02 0.02 0.02 0.01 0.00 0.00 0.00 0.00 0.00 0.00 0.00 0.00 0.00 0.00 0.00 0.00 0.00 0.00 0.00 0.00 0.00 0.00 0.00 0.00 0.00 0.00 0.00 0.00 0.00 0.00 0.00 0.00 0.00 0.00 0.00
0.00 0.00 0.00 0.00 0.00 0.00 0.00 0.00 0.00 0.00 0.00 0.00 0.00 0.00 0.00 0.00 0.00 0.00 0.00 0.00 0.00 0.00 0.00 0.00 0.00 0.00 0.00 0.00 0.00 0.00 0.00 0.00 0.00 0.00 0.00 0.00 0.00 0.00 0.00 0.00 0.00 0.00 0.00
0.00 0.00 0.00 0.00 0.00 0.00 0.00 0.00 0.00 0.00 0.00 0.00 0.00 0.00 0.00 0.00 0.00 0.00 0.00 0.00 0.00 0.00 0.00 0.00 0.00 0.00 0.00 0.00 0.00 0.00 0.00 0.00 0.00 0.00 0.00 0.00 0.00 0.00 0.00 0.00 0.00 0.00 0.00
0.00 0.00 0.00 0.00 0.00 0.00 0.00 0.00 0.00 0.00 0.00 0.00 0.00 0.00 0.00 0.00 0.00 0.00 0.00 0.00 0.00 0.00 0.00 0.00 0.00 0.00 0.00 0.00 0.00 0.00 0.00 0.00 0.00 0.00 0.00 0.00 0.00 0.00 0.00 0.00 0.00 0.00 0.00
0.00 0.00 0.00 0.00 0.00 0.00 0.00 0.00 0.00 0.00 0.00 0.00 0.00 0.00 0.00 0.00 0.00 0.00 0.00 0.00 0.00 0.00 0.00 0.00 0.00 0.00 0.00 0.00 0.00 0.00 0.00 0.00 0.00 0.00 0.00 0.00 0.00 0.00 0.00 0.00 0.00 0.00 0.00
0.00 0.00 0.00 0.00 0.00 0.00 0.00 0.00 0.00 0.00 0.00 0.00 0.00 0.00 0.00 0.00 0.00 0.00 0.00 0.00 0.00 0.00 0.00 0.00 0.00 0.00 0.00 0.00 0.00 0.00 0.00 0.00 0.00 0.00 0.00 0.00 0.00 0.00 0.00 0.00 0.00 0.00 0.00
0.00 0.00 0.00 0.00 0.00 0.00 0.00 0.00 0.00 0.00 0.00 0.00 0.00 0.00 0.00 0.00 0.00 0.00 0.00 0.00 0.00 0.00 0.00 0.00 0.00 0.00 0.00 0.00 0.00 0.00 0.00 0.00 0.00 0.00 0.00 0.00 0.00 0.00 0.00 0.00 0.00 0.00 0.00
0.00 0.00 0.00 0.00 0.00 0.00 0.00 0.00 0.00 0.00 0.00 0.00 0.00 0.00 0.00 0.00 0.00 0.00 0.00 0.00 0.00 0.00 0.00 0.00 0.00 0.00 0.00 0.00 0.00 0.00 0.00 0.00 0.00 0.00 0.00 0.00 0.00 0.00 0.00 0.00 0.00 0.00 0.00
0.00 0.00 0.00 0.00 0.00 0.00 0.00 0.00 0.00 0.00 0.00 0.00 0.00 0.00 0.00 0.00 0.00 0.00 0.00 0.00 0.00 0.00 0.00 0.00 0.00 0.00 0.00 0.00 0.00 0.00 0.00 0.00 0.00 0.00 0.00 0.00 0.00 0.00 0.00 0.00 0.00 0.00 0.00
0.00 0.00 0.00 0.00 0.00 0.00 0.00 0.00 0.00 0.00 0.00 0.00 0.00 0.00 0.00 0.00 0.00 0.00 0.00 0.00 0.00 0.00 0.00 0.00 0.00 0.00 0.00 0.00 0.00 0.00 0.00 0.00 0.00 0.00 0.00 0.00 0.00 0.00 0.00 0.00 0.00 0.00 0.00
MSLP
1014.72 1015.40 1015.89 1016.30 1016.86 1017.40 1017.90 1018.28 1018.73 1019.29 1019.69 1020.50 1021.07 1021.37 1021.57 1021.74 1021.91 1022.06 1022.20 1022.34 1022.60 1022.77 1023.16 1023.76 1024.15 1024.23 1024.46 1024.89 1025.08 1025.63 1026.21 1026.56 1026.51 1026.72 1026.79 1026.57 1026.59 1026.66 1026.39 1026.34 1026.26 1026.12 1026.08
1014.68 1014.95 1015.39 1015.97 1016.57 1017.07 1017.51 1018.11 1018.48 1019.00 1019.60 1020.01 1020.42 1020.84 1021.30 1021.96 1022.14 1022.28 1022.21 1022.15 1022.48 1022.76 1023.11 1023.51 1023.86 1024.03 1024.45 1024.96 1025.37 1025.72 1026.32 1026.55 1026.58 1027.03 1027.35 1027.30 1027.04 1026.58 1026.24 1026.28 1026.20 1026.32 1026.28
1013.83 1014.38 1014.90 1015.32 1015.90 1016.43 1016.68 1017.28 1017.73 1018.38 1019.10 1019.75 1020.38 1020.92 1021.52 1022.02 1022.30 1022.25 1022.17 1022.31 1022.34 1022.53 1022.82 1023.26 1023.65 1024.10 1024.51 1025.15 1025.51 1025.70 1026.05 1026.67 1026.79 1026.79 1027.19 1027.60 1027.68 1027.32 1026.80 1026.55 1026.45 1026.49 1026.41
1013.25 1013.74 1014.25 1014.62 1014.74 1015.03 1016.03 1016.70 1017.42 1018.26 1018.96 1019.38 1019.84 1020.29 1020.77 1021.24 1021.45 1021.53 1021.98 1022.22 1022.38 1022.60 1023.01 1023.50 1024.02 1024.53 1024.90 1025.19 1025.36 1025.73 1026.25 1026.62 1026.96 1026.95 1026.94 1027.07 1027.29 1027.55 1027.57 1026.91 1026.59 1026.46 1026.38
1012.27 1012.72 1013.13 1013.37 1014.64 1015.71 1016.17 1016.82 1017.61 1018.29 1018.57 1018.96 1019.32 1019.83 1020.21 1020.56 1021.00 1021.61 1022.19 1022.51 1022.74 1023.22 1023.62 1024.04 1024.54 1024.97 1025.37 1025.75 1025.83 1025.81 1026.06 1026.50 1026.82 1027.13 1027.19 1027.21 1027.15 1027.29 1027.61 1027.18 1026.91 1026.66 1026.30
1012.04 1012.50 1013.02 1013.99 1014.77 1015.61 1016.40 1016.70 1016.96 1017.30 1017.88 1018.35 1018.80 1019.34 1019.92 1020.57 1021.17 1021.80 1022.40 1022.87 1023.47 1023.91 1024.24 1024.69 1025.03 1025.69 1025.65 1025.76 1025.86 1026.21 1026.26 1026.41 1026.53 1026.68 1026.73 1026.86 1026.74 1026.90 1027.27 1027.25 1026.81 1026.60 1026.05
1011.73 1012.43 1013.14 1013.71 1014.45 1015.22 1015.81 1016.50 1016.95 1017.34 1017.51 1018.23 1018.62 1019.05 1019.51 1020.07 1020.74 1021.32 1021.97 1022.75 1023.49 1023.99 1024.40 1024.61 1025.05 1025.37 1025.70 1025.94 1025.94 1025.84 1026.38 1026.31 1026.30 1026.35 1026.37 1026.45 1026.57 1026.52 1026.60 1026.69 1026.45 1026.31 1026.14
1011.43 1012.11 1012.64 1013.23 1013.97 1014.58 1015.18 1016.04 1016.29 1016.91 1017.27 1017.64 1018.08 1018.63 1019.09 1019.88 1020.60 1021.12 1021.78 1022.55 1023.27 1024.02 1024.66 1025.09 1025.13 1024.94 1024.83 1025.03 1025.46 1025.80 1025.80 1026.09 1026.31 1026.29 1026.35 1026.36 1026.14 1026.09 1026.06 1026.23 1026.25 1026.23 1026.34
1011.14 1011.59 1012.15 1012.82 1013.56 1014.12 1014.71 1015.28 1015.83 1016.42 1016.89 1017.26 1017.88 1018.47 1019.01 1019.63 1020.36 1020.98 1021.67 1023.01 1023.59 1024.10 1024.73 1025.18 1025.20 1025.32 1025.16 1025.54 1025.72 1025.75 1025.68 1026.16 1026.24 1026.10 1026.06 1026.03 1025.80 1025.74 1025.79 1025.88 1026.00 1026.16 1026.08
1011.21 1011.68 1012.15 1012.55 1013.13 1013.59 1014.27 1015.12 1015.48 1015.80 1016.32 1017.07 1017.60 1018.08 1018.64 1019.23 1019.83 1020.91 1021.67 1022.27 1023.33 1024.30 1024.46 1024.60 1025.61 1025.65 1025.34 1025.26 1025.28 1025.43 1025.43 1025.79 1025.80 1025.70 1025.68 1025.58 1025.43 1025.41 1025.51 1025.58 1025.64 1025.92 1026.15
1011.04 1011.44 1011.75 1012.25 1012.70 1013.43 1013.98 1014.42 1015.06 1015.51 1016.25 1016.75 1017.31 1017.89 1018.80 1019.54 1020.12 1021.08 1021.67 1022.44 1023.00 1023.40 1024.20 1024.96 1024.95 1025.15 1024.88 1024.76 1025.01 1025.12 1025.14 1025.19 1025.22 1025.25 1025.23 1025.15 1025.18 1025.27 1025.35 1025.38 1025.54 1025.80 1026.04
1010.68 1011.02 1011.33 1011.87 1012.56 1012.98 1013.50 1013.98 1014.65 1015.40 1016.26 1016.91 1017.75 1018.59 1019.31 1020.07 1020.67 1021.27 1021.77 1022.22 1022.92 1022.94 1023.30 1023.65 1024.56 1024.29 1024.27 1024.40 1024.61 1024.63 1024.66 1024.80 1024.89 1024.83 1024.87 1024.92 1024.96 1025.07 1025.21 1025.28 1025.55 1025.70 1025.85
1010.86 1011.19 1011.62 1011.77 1012.03 1012.54 1013.34 1014.13 1014.70 1015.48 1016.11 1016.82 1017.80 1018.50 1019.54 1020.33 1020.98 1021.47 1021.96 1022.31 1022.50 1023.17 1023.30 1023.69 1023.81 1023.79 1023.91 1024.06 1024.09 1024.26 1024.33 1024.47 1024.57 1024.60 1024.68 1024.76 1024.83 1024.90 1025.06 1025.21 1025.45 1025.55 1025.58
1010.58 1011.06 1011.69 1012.00 1012.47 1013.19 1013.90 1014.57 1015.38 1015.79 1016.22 1016.77 1017.68 1018.56 1019.18 1020.12 1020.66 1021.20 1021.87 1022.20 1022.74 1022.85 1022.97 1023.19 1023.26 1023.48 1023.63 1023.77 1023.85 1024.01 1024.17 1024.26 1024.35 1024.45 1024.50 1024.50 1024.43 1024.44 1024.52 1024.76 1024.99 1025.16 1025.43
1010.67 1011.07 1011.63 1012.36 1012.89 1013.45 1014.33 1015.11 1015.79 1016.38 1016.80 1017.57 1018.25 1019.09 1019.79 1020.33 1020.93 1021.37 1022.08 1022.25 1022.34 1023.01 1022.79 1022.96 1023.27 1023.45 1023.45 1023.44 1023.63 1023.78 1023.80 1023.95 1024.09 1024.15 1024.19 1024.15 1024.03 1023.85 1023.99 1024.12 1024.44 1024.79 1025.13
1010.75 1011.06 1011.66 1012.40 1013.12 1013.89 1014.71 1015.43 1016.13 1016.85 1017.36 1018.22 1018.83 1019.64 1020.35 1020.80 1021.40 1021.94 1022.06 1022.40 1022.69 1022.68 1023.01 1022.93 1022.74 1022.96 1022.99 1022.94 1023.02 1023.34 1023.47 1023.59 1023.74 1023.81 1023.77 1023.80 1023.56 1023.45 1023.27 1023.42 1023.78 1024.18 1024.56
1011.93 1012.27 1012.74 1013.23 1013.81 1014.36 1014.92 1015.74 1016.52 1017.21 1017.94 1018.65 1019.33 1019.85 1020.67 1021.40 1021.84 1021.97 1022.29 1022.59 1022.99 1023.01 1022.76 1022.73 1022.60 1022.60 1022.56 1022.49 1022.58 1022.83 1023.03 1023.25 1023.34 1023.42 1023.42 1023.36 1023.15 1023.08 1023.25 1023.29 1023.57 1023.76 1023.96
1013.49 1013.78 1014.08 1014.49 1015.02 1015.44 1016.01 1016.52 1017.22 1017.94 1018.62 1019.33 1020.01 1020.69 1021.22 1021.48 1021.81 1022.26 1022.64 1022.79 1022.77 1022.61 1022.55 1022.48 1022.27 1022.21 1022.16 1022.16 1022.30 1022.35 1022.58 1022.82 1022.91 1022.97 1022.98 1022.92 1022.87 1022.92 1022.95 1023.07 1023.34 1023.53 1023.69
1015.08 1015.31 1015.46 1015.72 1016.07 1016.49 1017.01 1017.44 1018.28 1018.93 1019.57 1020.35 1020.91 1021.35 1021.47 1021.85 1022.08 1022.31 1022.46 1022.60 1022.54 1022.36 1022.25 1022.04 1021.99 1022.03 1021.80 1021.70 1021.83 1021.90 1022.12 1022.34 1022.42 1022.42 1022.45 1022.42 1022.40 1022.26 1022.28 1022.67 1022.99 1023.13 1023.08
1016.21 1016.49 1016.74 1016.93 1017.18 1017.84 1017.96 1018.44 1019.34 1019.86 1020.41 1020.76 1021.26 1021.62 1021.66 1021.97 1022.11 1022.22 1022.37 1022.21 1022.13 1022.07 1021.89 1021.78 1021.67 1021.54 1021.41 1021.30 1021.33 1021.40 1021.61 1021.92 1021.85 1021.78 1021.74 1021.73 1021.71 1021.71 1021.82 1022.13 1022.56 1022.72 1022.50
1017.32 1017.48 1017.68 1018.01 1018.46 1018.72 1018.93 1019.58 1020.15 1020.57 1020.98 1021.15 1021.31 1021.50 1021.77 1021.89 1022.02 1022.16 1022.20 1022.13 1022.06 1021.94 1021.75 1021.60 1021.32 1021.15 1021.00 1020.78 1020.73 1020.78 1020.98 1021.12 1021.16 1021.18 1020.99 1020.88 1020.90 1021.05 1021.22 1021.50 1021.84 1021.86 1021.85
1018.34 1018.45 1018.60 1019.10 1019.42 1019.66 1019.87 1020.49 1020.88 1021.15 1021.31 1021.59 1021.76 1021.85 1021.95 1022.01 1022.05 1022.16 1022.04 1021.91 1021.87 1021.80 1021.58 1021.31 1020.92 1020.58 1020.27 1020.09 1019.91 1019.86 1019.92 1020.04 1020.35 1020.28 1020.09 1019.92 1020.03 1020.27 1020.48 1020.79 1020.90 1021.05 1021.23
1019.13 1019.33 1019.46 1019.94 1020.39 1020.61 1020.94 1021.31 1021.49 1021.64 1021.82 1021.96 1022.07 1022.05 1022.01 1022.01 1021.95 1022.00 1021.86 1021.72 1021.57 1021.36 1021.04 1020.82 1020.39 1019.83 1019.40 1019.15 1018.89 1018.74 1018.78 1018.88 1019.13 1019.17 1019.07 1019.05 1019.22 1019.48 1019.73 1019.90 1020.15 1020.31 1020.51
1019.86 1020.11 1020.39 1020.81 1021.24 1021.62 1021.88 1022.14 1022.12 1022.15 1022.31 1022.47 1022.53 1022.49 1022.51 1022.28 1022.01 1021.84 1021.72 1021.60 1021.33 1021.00 1020.56 1020.06 1019.63 1019.06 1018.47 1018.31 1017.97 1017.80 1017.72 1017.75 1017.91 1017.98 1018.06 1018.24 1018.44 1018.57 1018.83 1019.12 1019.39 1019.60 1019.79
1020.52 1020.83 1021.23 1021.78 1022.31 1022.64 1022.92 1023.04 1022.99 1022.83 1022.87 1022.88 1022.90 1022.83 1022.72 1022.52 1022.18 1021.89 1021.66 1021.27 1020.72 1020.62 1020.06 1019.38 1018.95 1018.49 1017.71 1017.16 1016.75 1016.56 1016.65 1016.73 1016.88 1016.91 1017.04 1017.44 1017.71 1017.95 1018.15 1018.41 1018.68 1018.89 1019.14
1021.27 1021.81 1022.38 1022.77 1023.29 1023.48 1023.71 1023.72 1023.59 1023.48 1023.53 1023.52 1023.49 1023.40 1023.20 1022.89 1022.48 1021.90 1021.05 1020.86 1020.23 1019.62 1019.22 1018.71 1018.29 1017.34 1016.68 1016.08 1015.82 1015.64 1015.50 1015.39 1015.73 1016.28 1016.23 1016.45 1016.66 1016.94 1017.21 1017.55 1017.81 1018.07 1018.34
Thickness
5646 5642 5641 5639 5636 5633 5630 5628 5624 5621 5619 5612 5606 5605 5604 5602 5601 5599 5596 5593 5590 5589 5585 5577 5570 5565 5559 5551 5544 5535 5526 5517 5512 5506 5499 5495 5491 5486 5482 5478 5474 5469 5465
5645 5646 5645 5641 5635 5632 5630 5626 5625 5621 5616 5612 5609 5605 5604 5598 5595 5593 5593 5593 5588 5584 5578 5571 5564 5558 5550 5540 5531 5523 5513 5506 5500 5492 5482 5479 5477 5476 5474 5468 5462 5456 5451
5651 5650 5646 5643 5639 5635 5633 5630 5628 5623 5616 5610 5606 5602 5597 5593 5590 5590 5589 5584 5581 5576 5569 5562 5556 5548 5539 5527 5518 5511 5504 5493 5486 5481 5472 5462 5456 5455 5457 5453 5448 5442 5437
5656 5654 5650 5647 5646 5645 5636 5631 5625 5619 5613 5610 5607 5604 5600 5596 5593 5590 5583 5577 5572 5566 5559 5551 5542 5531 5523 5515 5508 5500 5490 5482 5474 5469 5463 5456 5449 5441 5439 5438 5435 5430 5422
5662 5660 5657 5655 5644 5636 5632 5627 5620 5615 5614 5612 5609 5605 5601 5597 5590 5582 5574 5567 5561 5552 5544 5535 5525 5517 5508 5501 5497 5491 5483 5474 5465 5456 5449 5443 5436 5428 5421 5420 5416 5411 5404
5660 5659 5655 5647 5639 5633 5627 5625 5624 5621 5617 5613 5609 5604 5598 5590 5581 5573 5564 5556 5547 5538 5529 5519 5511 5499 5494 5489 5484 5477 5471 5463 5454 5446 5440 5432 5425 5416 5404 5399 5398 5393 5392
5656 5652 5647 5645 5639 5633 5629 5624 5621 5618 5617 5611 5606 5600 5594 5587 5578 5568 5559 5547 5536 5527 5518 5509 5502 5495 5485 5475 5470 5465 5454 5448 5442 5434 5426 5417 5408 5400 5393 5385 5381 5376 5370
5656 5652 5650 5646 5641 5637 5632 5624 5624 5619 5615 5610 5604 5597 5590 5579 5569 5560 5550 5540 5529 5517 5504 5497 5490 5486 5480 5472 5462 5453 5445 5435 5426 5419 5410 5402 5395 5387 5379 5370 5361 5353 5347
5659 5656 5652 5647 5642 5637 5632 5626 5622 5616 5611 5607 5598 5589 5581 5572 5562 5554 5544 5525 5514 5504 5493 5483 5479 5472 5466 5456 5447 5439 5431 5421 5412 5404 5396 5388 5382 5373 5362 5350 5340 5330 5329
5655 5652 5650 5646 5641 5637 5631 5623 5620 5616 5608 5599 5592 5584 5575 5566 5559 5544 5531 5522 5506 5495 5487 5481 5464 5457 5450 5445 5436 5429 5421 5409 5400 5392 5383 5374 5366 5357 5344 5333 5324 5311 5300
5653 5651 5650 5646 5641 5633 5628 5623 5616 5610 5601 5593 5585 5576 5565 5555 5545 5532 5522 5511 5501 5493 5479 5466 5459 5451 5444 5437 5428 5418 5409 5399 5389 5379 5370 5360 5349 5337 5325 5314 5302 5289 5277
5652 5651 5650 5645 5636 5632 5628 5622 5614 5605 5593 5582 5572 5562 5552 5541 5530 5519 5511 5501 5490 5484 5472 5463 5448 5442 5435 5427 5417 5407 5398 5387 5376 5366 5355 5343 5332 5320 5307 5294 5282 5269 5257
5646 5644 5641 5640 5637 5633 5623 5613 5603 5593 5585 5576 5564 5554 5540 5529 5519 5510 5501 5492 5483 5469 5459 5449 5441 5434 5424 5414 5406 5395 5384 5373 5361 5350 5338 5327 5314 5302 5287 5275 5263 5252 5244
5643 5638 5634 5631 5626 5619 5608 5599 5589 5583 5575 5566 5554 5543 5533 5521 5512 5503 5491 5480 5467 5459 5450 5441 5432 5422 5411 5401 5391 5380 5368 5357 5346 5334 5323 5311 5299 5286 5274 5262 5251 5241 5232
5636 5632 5626 5620 5614 5606 5595 5586 5578 5569 5560 5550 5541 5531 5519 5510 5498 5488 5475 5466 5457 5445 5439 5429 5418 5407 5397 5387 5377 5365 5354 5342 5329 5317 5306 5295 5286 5275 5263 5251 5241 5231 5222
5632 5627 5620 5612 5604 5592 5582 5574 5565 5556 5547 5538 5528 5516 5503 5494 5482 5471 5462 5451 5441 5434 5423 5414 5406 5395 5386 5375 5365 5351 5339 5326 5315 5304 5293 5284 5273 5263 5253 5243 5234 5225 5216
5613 5609 5603 5595 5586 5577 5570 5561 5550 5541 5532 5522 5511 5501 5488 5476 5466 5458 5447 5437 5425 5416 5410 5402 5392 5382 5372 5362 5351 5337 5325 5313 5302 5292 5283 5273 5262 5251 5241 5233 5224 5217 5210
5588 5584 5579 5572 5564 5558 5551 5544 5534 5525 5515 5503 5492 5480 5470 5462 5451 5440 5430 5420 5411 5405 5397 5387 5379 5369 5358 5348 5335 5324 5313 5302 5292 5282 5272 5262 5251 5240 5231 5223 5215 5209 5203
5563 5559 5558 5555 5550 5543 5535 5527 5515 5505 5494 5482 5472 5462 5454 5444 5435 5426 5417 5408 5400 5392 5384 5376 5365 5353 5344 5333 5323 5312 5302 5291 5282 5272 5262 5252 5242 5233 5226 5217 5210 5203 5199
5548 5544 5540 5535 5529 5520 5515 5506 5494 5486 5475 5466 5455 5446 5439 5430 5421 5412 5403 5396 5388 5380 5371 5361 5350 5340 5331 5320 5311 5301 5290 5281 5273 5264 5253 5244 5235 5226 5219 5211 5203 5197 5196
5531 5528 5523 5517 5509 5504 5497 5486 5475 5467 5457 5450 5442 5434 5424 5416 5407 5397 5388 5381 5373 5364 5356 5348 5337 5327 5316 5309 5300 5291 5281 5272 5265 5255 5246 5236 5229 5222 5214 5208 5200 5195 5194
5515 5511 5506 5497 5490 5484 5477 5466 5458 5449 5441 5432 5424 5416 5408 5400 5392 5382 5374 5366 5357 5348 5339 5329 5325 5315 5306 5297 5292 5282 5273 5265 5256 5247 5239 5231 5224 5217 5210 5204 5199 5195 5191
5497 5492 5487 5478 5469 5463 5455 5446 5438 5431 5423 5416 5408 5400 5393 5384 5376 5368 5360 5350 5339 5330 5325 5316 5310 5307 5299 5288 5281 5274 5266 5257 5247 5240 5232 5225 5218 5211 5205 5201 5196 5192 5188
5480 5475 5468 5460 5451 5443 5434 5426 5419 5413 5405 5397 5389 5381 5373 5366 5359 5350 5341 5333 5323 5314 5308 5302 5295 5291 5290 5282 5272 5263 5255 5248 5239 5231 5225 5218 5212 5206 5201 5196 5192 5188 5185
5463 5457 5448 5439 5428 5419 5411 5404 5399 5393 5386 5378 5370 5362 5355 5348 5342 5335 5326 5318 5313 5298 5292 5288 5279 5273 5275 5273 5263 5255 5244 5237 5230 5222 5218 5210 5204 5200 5196 5192 5188 5185 5182
5445 5435 5425 5416 5406 5399 5391 5385 5380 5374 5366 5358 5350 5342 5336 5329 5322 5318 5318 5307 5298 5292 5281 5272 5261 5260 5256 5256 5249 5241 5232 5225 5220 5211 5209 5204 5199 5196 5193 5188 5185 5182 5180